Time,TemperatureF,DewpointF,PressureIn,WindDirection,WindDirectionDegrees,WindSpeedMPH,WindSpeedGustMPH,Humidity,HourlyPrecipIn,Conditions,Clouds,dailyrainin,SoftwareType,DateUTC
2013-04-08 00:01:00,50.6,44.0,29.77,East,82,12.0,14.0,78,0.00,,,0.00,weatherlink.com 1.10,2013-04-08 05:01:00,
2013-04-08 00:16:00,49.8,43.0,29.77,NE,43,8.0,14.0,78,0.00,,,0.00,weatherlink.com 1.10,2013-04-08 05:16:00,
2013-04-08 00:31:00,49.1,43.0,29.77,ENE,72,5.0,17.0,78,0.00,,,0.00,weatherlink.com 1.10,2013-04-08 05:31:00,
2013-04-08 00:46:00,48.7,42.0,29.76,SSW,195,5.0,14.0,78,0.00,,,0.00,weatherlink.com 1.10,2013-04-08 05:46:00,
2013-04-08 01:02:00,47.8,42.0,29.76,East,97,4.0,12.0,79,0.00,,,0.00,weatherlink.com 1.10,2013-04-08 06:02:00,
2013-04-08 01:17:00,47.0,41.0,29.76,NNW,338,2.0,11.0,80,0.00,,,0.00,weatherlink.com 1.10,2013-04-08 06:17:00,
2013-04-08 01:32:00,46.0,41.0,29.75,East,98,12.0,16.0,81,0.00,,,0.00,weatherlink.com 1.10,2013-04-08 06:32:00,
2013-04-08 01:47:00,45.4,40.0,29.75,ESE,104,13.0,14.0,81,0.00,,,0.00,weatherlink.com 1.10,2013-04-08 06:47:00,
2013-04-08 02:02:00,45.1,40.0,29.73,ENE,76,8.0,19.0,81,0.00,,,0.00,weatherlink.com 1.10,2013-04-08 07:02:00,
2013-04-08 02:17:00,44.8,39.0,29.71,ESE,116,11.0,18.0,81,0.00,,,0.00,weatherlink.com 1.10,2013-04-08 07:17:00,
2013-04-08 02:32:00,44.7,39.0,29.70,NW,321,3.0,16.0,81,0.00,,,0.00,weatherlink.com 1.10,2013-04-08 07:32:00,
2013-04-08 02:47:00,44.6,39.0,29.71,NE,56,7.0,12.0,81,0.00,,,0.00,weatherlink.com 1.10,2013-04-08 07:47:00,
2013-04-08 03:02:00,44.8,39.0,29.70,East,92,6.0,17.0,81,0.00,,,0.00,weatherlink.com 1.10,2013-04-08 08:02:00,
2013-04-08 03:17:00,44.9,39.0,29.69,NW,305,2.0,16.0,81,0.00,,,0.00,weatherlink.com 1.10,2013-04-08 08:17:00,
2013-04-08 03:32:00,45.4,40.0,29.68,ENE,77,5.0,21.0,80,0.00,,,0.00,weatherlink.com 1.10,2013-04-08 08:32:00,
2013-04-08 03:47:00,45.8,40.0,29.68,East,85,9.0,17.0,79,0.00,,,0.00,weatherlink.com 1.10,2013-04-08 08:47:00,
2013-04-08 04:02:00,46.1,40.0,29.67,SE,128,4.0,12.0,79,0.00,,,0.00,weatherlink.com 1.10,2013-04-08 09:02:00,
2013-04-08 04:17:00,46.4,40.0,29.67,NNW,348,2.0,11.0,79,0.00,,,0.00,weatherlink.com 1.10,2013-04-08 09:17:00,
2013-04-08 04:32:00,45.5,41.0,29.66,NE,56,5.0,10.0,84,0.00,,,0.00,weatherlink.com 1.10,2013-04-08 09:32:00,
2013-04-08 04:47:00,44.2,42.0,29.66,SE,125,2.0,9.0,90,0.03,,,0.03,weatherlink.com 1.10,2013-04-08 09:47:00,
2013-04-08 05:02:00,43.9,42.0,29.65,NE,46,2.0,8.0,93,0.10,,,0.10,weatherlink.com 1.10,2013-04-08 10:02:00,
2013-04-08 05:17:00,43.8,43.0,29.63,East,89,5.0,8.0,95,0.17,,,0.17,weatherlink.com 1.10,2013-04-08 10:17:00,
2013-04-08 05:32:00,43.8,43.0,29.61,NE,39,4.0,11.0,96,0.23,,,0.23,weatherlink.com 1.10,2013-04-08 10:32:00,
2013-04-08 05:47:00,43.5,43.0,29.59,NNE,30,3.0,9.0,97,0.25,,,0.28,weatherlink.com 1.10,2013-04-08 10:47:00,
2013-04-08 06:02:00,43.6,43.0,29.57,NNE,32,5.0,11.0,98,0.24,,,0.34,weatherlink.com 1.10,2013-04-08 11:02:00,
2013-04-08 06:18:00,43.7,43.0,29.57,NE,46,1.0,9.0,98,0.23,,,0.40,weatherlink.com 1.10,2013-04-08 11:18:00,
2013-04-08 06:33:00,44.0,44.0,29.58,NNW,335,3.0,4.0,99,0.22,,,0.45,weatherlink.com 1.10,2013-04-08 11:33:00,
2013-04-08 06:48:00,43.6,43.0,29.60,NNE,20,3.0,6.0,99,0.24,,,0.52,weatherlink.com 1.10,2013-04-08 11:48:00,
2013-04-08 07:03:00,43.7,44.0,29.62,NNW,341,0.0,2.0,99,0.28,,,0.62,weatherlink.com 1.10,2013-04-08 12:03:00,
2013-04-08 07:18:00,43.6,43.0,29.61,NE,34,2.0,4.0,99,0.34,,,0.74,weatherlink.com 1.10,2013-04-08 12:18:00,
2013-04-08 07:33:00,43.1,43.0,29.60,NE,34,5.0,8.0,99,0.36,,,0.81,weatherlink.com 1.10,2013-04-08 12:33:00,
2013-04-08 07:48:00,42.9,43.0,29.59,NE,49,8.0,8.0,99,0.30,,,0.83,weatherlink.com 1.10,2013-04-08 12:48:00,
2013-04-08 08:03:00,42.7,43.0,29.60,NW,304,4.0,10.0,99,0.21,,,0.83,weatherlink.com 1.10,2013-04-08 13:03:00,
2013-04-08 08:18:00,42.8,43.0,29.59,North,5,4.0,10.0,99,0.09,,,0.83,weatherlink.com 1.10,2013-04-08 13:18:00,
2013-04-08 08:33:00,43.1,43.0,29.60,NE,56,4.0,12.0,99,0.02,,,0.83,weatherlink.com 1.10,2013-04-08 13:33:00,
2013-04-08 08:48:00,43.3,43.0,29.61,NNW,347,7.0,11.0,99,0.00,,,0.83,weatherlink.com 1.10,2013-04-08 13:48:00,
2013-04-08 09:03:00,43.9,44.0,29.63,NNE,12,1.0,8.0,99,0.00,,,0.83,weatherlink.com 1.10,2013-04-08 14:03:00,
2013-04-08 09:18:00,44.5,44.0,29.64,WNW,302,1.0,2.0,99,0.00,,,0.83,weatherlink.com 1.10,2013-04-08 14:18:00,
2013-04-08 09:33:00,45.8,46.0,29.65,ENE,57,0.0,8.0,99,0.00,,,0.83,weatherlink.com 1.10,2013-04-08 14:33:00,
2013-04-08 09:48:00,47.3,47.0,29.66,West,274,6.0,6.0,98,0.00,,,0.83,weatherlink.com 1.10,2013-04-08 14:48:00,
2013-04-08 10:03:00,47.7,47.0,29.66,WNW,300,1.0,6.0,96,0.00,,,0.83,weatherlink.com 1.10,2013-04-08 15:03:00,
2013-04-08 10:18:00,48.0,47.0,29.67,West,278,2.0,5.0,96,0.00,,,0.83,weatherlink.com 1.10,2013-04-08 15:18:00,
2013-04-08 10:33:00,49.7,49.0,29.68,West,267,5.0,7.0,97,0.00,,,0.83,weatherlink.com 1.10,2013-04-08 15:33:00,
2013-04-08 10:48:00,50.4,49.0,29.68,NW,304,2.0,6.0,93,0.00,,,0.83,weatherlink.com 1.10,2013-04-08 15:48:00,
2013-04-08 11:03:00,51.9,50.0,29.69,West,276,3.0,6.0,94,0.00,,,0.83,weatherlink.com 1.10,2013-04-08 16:03:00,
2013-04-08 11:18:00,52.5,50.0,29.69,NW,304,4.0,9.0,91,0.00,,,0.83,weatherlink.com 1.10,2013-04-08 16:18:00,
2013-04-08 11:33:00,53.0,50.0,29.70,WNW,288,3.0,8.0,90,0.00,,,0.83,weatherlink.com 1.10,2013-04-08 16:33:00,
2013-04-08 11:48:00,54.1,52.0,29.70,West,271,3.0,7.0,91,0.00,,,0.83,weatherlink.com 1.10,2013-04-08 16:48:00,
2013-04-08 12:03:00,55.2,52.0,29.70,West,269,4.0,6.0,88,0.00,,,0.83,weatherlink.com 1.10,2013-04-08 17:03:00,
2013-04-08 12:18:00,56.3,53.0,29.70,WNW,283,3.0,6.0,89,0.00,,,0.83,weatherlink.com 1.10,2013-04-08 17:18:00,
2013-04-08 12:33:00,58.0,54.0,29.71,NNW,348,6.0,7.0,85,0.00,,,0.83,weatherlink.com 1.10,2013-04-08 17:33:00,
2013-04-08 12:48:00,59.2,54.0,29.71,West,264,1.0,5.0,83,0.00,,,0.83,weatherlink.com 1.10,2013-04-08 17:48:00,
2013-04-08 13:03:00,59.6,54.0,29.71,SW,233,5.0,8.0,81,0.00,,,0.83,weatherlink.com 1.10,2013-04-08 18:03:00,
2013-04-08 13:18:00,59.9,53.0,29.72,West,260,4.0,9.0,79,0.00,,,0.83,weatherlink.com 1.10,2013-04-08 18:18:00,
2013-04-08 13:33:00,60.5,53.0,29.72,West,259,4.0,10.0,75,0.00,,,0.83,weatherlink.com 1.10,2013-04-08 18:33:00,
2013-04-08 13:48:00,62.0,53.0,29.72,SW,231,2.0,11.0,73,0.00,,,0.83,weatherlink.com 1.10,2013-04-08 18:48:00,
2013-04-08 14:34:00,63.3,56.0,29.72,WSW,239,7.0,9.0,76,0.00,,,0.83,weatherlink.com 1.10,2013-04-08 19:34:00,
2013-04-08 14:48:00,64.4,56.0,29.71,WNW,302,0.0,7.0,74,0.00,,,0.83,weatherlink.com 1.10,2013-04-08 19:48:00,
2013-04-08 15:19:00,64.3,56.0,29.72,West,271,0.0,7.0,74,0.00,,,0.83,weatherlink.com 1.10,2013-04-08 20:19:00,
2013-04-08 16:19:00,67.0,57.0,29.71,West,264,4.0,7.0,70,0.00,,,0.83,weatherlink.com 1.10,2013-04-08 21:19:00,
2013-04-08 16:34:00,67.6,57.0,29.71,ENE,75,0.0,4.0,69,0.00,,,0.83,weatherlink.com 1.10,2013-04-08 21:34:00,
2013-04-08 16:49:00,68.5,57.0,29.71,West,263,2.0,6.0,67,0.00,,,0.83,weatherlink.com 1.10,2013-04-08 21:49:00,
2013-04-08 17:04:00,68.9,57.0,29.73,West,277,3.0,5.0,67,0.00,,,0.83,weatherlink.com 1.10,2013-04-08 22:04:00,
2013-04-08 17:19:00,69.3,58.0,29.73,West,259,5.0,6.0,68,0.00,,,0.83,weatherlink.com 1.10,2013-04-08 22:19:00,
2013-04-08 17:34:00,70.4,58.0,29.73,SSE,165,1.0,3.0,65,0.00,,,0.83,weatherlink.com 1.10,2013-04-08 22:34:00,
2013-04-08 18:04:00,69.1,58.0,29.75,NE,41,1.0,2.0,67,0.00,,,0.83,weatherlink.com 1.10,2013-04-08 23:04:00,
2013-04-08 18:19:00,68.4,58.0,29.75,ENE,58,1.0,5.0,69,0.00,,,0.83,weatherlink.com 1.10,2013-04-08 23:19:00,
2013-04-08 18:34:00,67.3,57.0,29.76,East,79,5.0,8.0,70,0.00,,,0.83,weatherlink.com 1.10,2013-04-08 23:34:00,
2013-04-08 18:49:00,66.4,57.0,29.77,East,84,5.0,5.0,72,0.00,,,0.83,weatherlink.com 1.10,2013-04-08 23:49:00,
2013-04-08 19:04:00,65.6,57.0,29.77,NE,56,4.0,8.0,73,0.00,,,0.83,weatherlink.com 1.10,2013-04-09 00:04:00,
2013-04-08 19:19:00,64.9,57.0,29.78,NNE,27,3.0,6.0,75,0.00,,,0.83,weatherlink.com 1.10,2013-04-09 00:19:00,
2013-04-08 19:34:00,64.0,56.0,29.78,NE,55,2.0,5.0,76,0.00,,,0.83,weatherlink.com 1.10,2013-04-09 00:34:00,
2013-04-08 19:49:00,63.2,56.0,29.79,ENE,61,4.0,6.0,78,0.00,,,0.83,weatherlink.com 1.10,2013-04-09 00:49:00,
2013-04-08 20:04:00,62.3,56.0,29.79,ENE,75,3.0,3.0,79,0.00,,,0.83,weatherlink.com 1.10,2013-04-09 01:04:00,
2013-04-08 20:19:00,61.6,55.0,29.80,NE,56,4.0,4.0,80,0.00,,,0.83,weatherlink.com 1.10,2013-04-09 01:19:00,
2013-04-08 20:34:00,61.2,55.0,29.81,NE,51,3.0,5.0,81,0.00,,,0.83,weatherlink.com 1.10,2013-04-09 01:34:00,
2013-04-08 20:49:00,60.9,55.0,29.81,ENE,60,2.0,5.0,81,0.00,,,0.83,weatherlink.com 1.10,2013-04-09 01:49:00,
2013-04-08 21:04:00,60.4,55.0,29.82,ENE,63,5.0,6.0,82,0.00,,,0.83,weatherlink.com 1.10,2013-04-09 02:04:00,
2013-04-08 21:19:00,60.4,55.0,29.82,ENE,63,6.0,7.0,82,0.00,,,0.83,weatherlink.com 1.10,2013-04-09 02:19:00,
2013-04-08 21:34:00,60.0,55.0,29.83,NE,44,4.0,6.0,82,0.00,,,0.83,weatherlink.com 1.10,2013-04-09 02:34:00,
2013-04-08 21:49:00,60.1,54.0,29.84,ENE,72,4.0,6.0,81,0.00,,,0.83,weatherlink.com 1.10,2013-04-09 02:49:00,
2013-04-08 22:04:00,59.6,54.0,29.84,ENE,58,5.0,7.0,82,0.00,,,0.83,weatherlink.com 1.10,2013-04-09 03:04:00,
2013-04-08 22:19:00,59.2,54.0,29.84,ENE,68,8.0,11.0,83,0.00,,,0.83,weatherlink.com 1.10,2013-04-09 03:19:00,
2013-04-08 22:34:00,58.6,54.0,29.85,ENE,77,7.0,10.0,85,0.00,,,0.83,weatherlink.com 1.10,2013-04-09 03:34:00,
2013-04-08 22:49:00,57.6,54.0,29.86,East,80,6.0,9.0,87,0.00,,,0.83,weatherlink.com 1.10,2013-04-09 03:49:00,
2013-04-08 23:04:00,56.7,53.0,29.86,ENE,58,5.0,8.0,88,0.00,,,0.83,weatherlink.com 1.10,2013-04-09 04:04:00,
2013-04-08 23:19:00,55.9,53.0,29.87,East,91,7.0,10.0,89,0.00,,,0.83,weatherlink.com 1.10,2013-04-09 04:19:00,
2013-04-08 23:34:00,54.9,52.0,29.87,East,84,6.0,11.0,90,0.00,,,0.83,weatherlink.com 1.10,2013-04-09 04:34:00,
2013-04-08 23:49:00,53.7,51.0,29.88,NE,45,5.0,10.0,90,0.00,,,0.83,weatherlink.com 1.10,2013-04-09 04:49:00,